Regional Weather Roundup
Issued by NWS Mt. Holly, NJ

Home | Current Version | Previous Version | Text Only | Print | Product List | Glossary On
Versions: 1 2 3 4 5 6 7 8 9 10 11 12 13 14 15 16 17 18 19 20 21 22 23 24 25 26 27 28 29 30 31 32 33 34 35 36 37 38 39 40 41 42 43 44 45 46 47 48 49 50
000
ASUS41 KPHI 032211
RWRPHI

REGIONAL WEATHER ROUNDUP
NATIONAL WEATHER SERVICE MOUNT HOLLY NJ
600 PM EDT SUN MAY 03 2015

NOTE:  "FAIR" INDICATES FEW OR NO CLOUDS BELOW 12,000 FEET WITH NO
SIGNIFICANT WEATHER AND/OR OBSTRUCTIONS TO VISIBILITY.

 * = STATION DOES NOT REPORT PRECIPITATION (E.G. RAIN, SNOW, ETC.)
        OR FOG.

NJZ015>026-032300-
SOUTHERN NEW JERSEY

CITY           SKY/WX    TMP DP  RH WIND       PRES   REMARKS
POMONA         SUNNY     65  50  58 SE9       30.11R
RIO GRANDE*    SUNNY     64  48  55 SE9         N/A
MILLVILLE      MOSUNNY   76  46  34 SW7       30.08R
WRIGHTSTOWN    MOSUNNY   73  43  33 S10       30.06R
MOUNT HOLLY    SUNNY     78  38  23 SE9       30.07R
TRENTON        SUNNY     77  37  23 SW7       30.06R

$$
NJZ001>014-032300-
NORTHERN NEW JERSEY

CITY           SKY/WX    TMP DP  RH WIND       PRES   REMARKS
SUSSEX         PTSUNNY   75  37  25 S3        30.06R
ANDOVER*         N/A     75  37  25 CALM      30.06R
MORRISTOWN     PTSUNNY   75  37  25 MISG      30.06R
NEWARK         MOSUNNY   73  35  25 SE12      30.06R
TETERBORO      MOSUNNY   74  38  27 S12       30.05R
CALDWELL       MOSUNNY   74  38  27 S12       30.05R
SOMERVILLE     PTSUNNY   80  37  21 SW5       30.03S
ALLAIRE*       SUNNY     68  43  40 SE8       30.10R
TOMS RIVER*    SUNNY     72  41  33 S10G16    30.11R

$$
PAZ043-044-047-054-055-060>062-066>071-032300-
EASTERN PENNSYLVANIA

CITY           SKY/WX    TMP DP  RH WIND       PRES   REMARKS
PHILADELPHIA   MOSUNNY   81  37  20 CALM      30.07S
NORTH PHILA    MOSUNNY   80  35  19 W7        30.08R
BLUE BELL      SUNNY     79  36  21 W5        30.07R
DOYLESTOWN     MOSUNNY   75  34  22 W6        30.06S
QUAKERTOWN*    MOSUNNY   77  37  24 SW3       30.07S
POTTSTOWN      SUNNY     78  31  17 W8        30.08R
LANCASTER      SUNNY     76  39  26 W9        30.07R
COATESVILLE    SUNNY     75  39  27 W9        30.09S
READING        MOSUNNY   79  37  22 S6        30.05S
ALLENTOWN      SUNNY     79  33  19 W7        30.05S
MOUNT POCONO   MOSUNNY   72  30  21 W9        30.09S
HAZLETON       SUNNY     73  32  21 W5        30.12R
WILKES BARRE   SUNNY     77  32  19 VRB5      30.06R

$$
DEZALL-MDZ008-012-015-019-020-032300-
DELAWARE AND EASTERN MARYLAND

CITY           SKY/WX    TMP DP  RH WIND       PRES   REMARKS
WILMINGTON     MOSUNNY   78  41  26 VRB5      30.08R
DOVER          SUNNY     74  50  43 E7        30.06S
GEORGETOWN     MOSUNNY   75  48  38 SE13      30.10R
EASTON         MOSUNNY   81  46  30 SW8       30.13S
PATUXENT       MOSUNNY   73  44  35 SE8       30.10S
OCEAN CITY     SUNNY     62  50  64 S5        30.12R
WALLOPS ISLAND SUNNY     67  56  67 E9        30.11R
CAMBRIDGE      SUNNY     79  34  19 SW6       30.10R
SALISBURY      PTSUNNY   79  39  23 NW9       30.10R

$$
PAZ001-021-NYZ056-072-MDZ011-DCZ001-032300-
OTHER NEARBY LOCATIONS

CITY           SKY/WX    TMP DP  RH WIND       PRES   REMARKS
HARRISBURG     PTSUNNY   75  48  38 CALM      30.06S
STATE COLLEGE  PTSUNNY   75  39  27 S5        30.08S
WILLIAMSPORT   MOSUNNY   79  35  20 SW5       30.04R
BINGHAMTON     PTSUNNY   73  35  25 NW8       30.08R
NEW YORK CITY  MOSUNNY   71  40  32 VRB3      30.09R
BALTIMORE      PTSUNNY   79  43  27 NW6       30.07S
WASHINGTON DC  PTSUNNY   78  51  38 S6        30.09S

$$



USA.gov is the U.S. government's official web portal to all federal, state and local government web resources and services.